Change the Weather History Date:

Friday, January 17, 2014

  Actual Average Record
Temperature  
Mean Temperature 49 °F -  
Max Temperature 61 °F 59 °F 75 °F (2012)
Min Temperature 33 °F 40 °F 21 °F (1997)
Degree Days  
Heating Degree Days 16    
Moisture  
Dew Point 29 °F    
Average Humidity 51    
Maximum Humidity 83    
Minimum Humidity 21    
Precipitation  
Precipitation 0.00 in - - ()
Sea Level Pressure  
Sea Level Pressure 30.09 in    
Wind  
Wind Speed 8 mph (West)    
Max Wind Speed 15 mph    
Max Gust Speed 26 mph    
Visibility 10 miles    
Events      
Averages and records for this station are not official NWS values.
T = Trace of Precipitation, MM = Missing Value Source: NWS Daily Summary

Daily Weather History Graph

Daily Weather History Graph

Search for Another Location

Airport or City:

Trip Planner

Search our weather history database for the weather conditions in past years. The results will help you decide how hot, cold, wet, or windy it might be!

Date:

Astronomy

Jan. 17, 2014 Rise Set
Actual Time 6:45 AM CST 5:10 PM CST
Civil Twilight 6:19 AM CST 5:36 PM CST
Nautical Twilight 5:50 AM CST 6:06 PM CST
Astronomical Twilight 5:21 AM CST 6:35 PM CST
Moon 6:47 PM CST (1/17) 7:22 AM CST (1/17)
Length of Visible Light 11h 16m
Length of Day
10h 25m
Full, 98% of the Moon is Illuminated
Jan 17
Full
Jan 23
Last Quarter
Jan 30
New
Feb 6
First Quarter
Feb 14
Full

Hourly Weather History & Observations

Time (CST) Temp. Windchill Dew Point Humidity Pressure Visibility Wind Dir Wind Speed Gust Speed Precip Events Conditions
12:56 AM 44.1 °F 41.5 °F 35.1 °F 71% 30.07 in 10.0 mi SSW 4.6 mph - N/A   Clear
1:56 AM 43.0 °F 38.8 °F 35.1 °F 74% 30.06 in 10.0 mi SW 6.9 mph - N/A   Clear
2:56 AM 45.0 °F 41.2 °F 37.0 °F 74% 30.05 in 10.0 mi SW 6.9 mph - N/A   Clear
3:56 AM 46.9 °F - 39.0 °F 74% 30.05 in 10.0 mi WSW 6.9 mph - N/A   Clear
4:56 AM 48.0 °F - 41.0 °F 77% 30.05 in 10.0 mi West 8.1 mph - N/A   Clear
5:56 AM 48.0 °F - 42.1 °F 80% 30.06 in 10.0 mi West 8.1 mph - N/A   Mostly Cloudy
6:56 AM 46.9 °F - 42.1 °F 83% 30.08 in 10.0 mi West 8.1 mph - N/A   Mostly Cloudy
7:56 AM 48.9 °F - 43.0 °F 80% 30.10 in 10.0 mi West 10.4 mph - N/A   Mostly Cloudy
8:56 AM 51.1 °F - 42.1 °F 71% 30.13 in 10.0 mi West 15.0 mph - N/A   Mostly Cloudy
9:56 AM 54.0 °F - 37.9 °F 55% 30.13 in 10.0 mi West 9.2 mph - N/A   Mostly Cloudy
10:56 AM 55.9 °F - 36.0 °F 47% 30.13 in 10.0 mi NW 10.4 mph 18.4 mph N/A   Mostly Cloudy
11:56 AM 57.9 °F - 28.0 °F 32% 30.09 in 10.0 mi WNW 11.5 mph 19.6 mph N/A   Mostly Cloudy
12:56 PM 60.1 °F - 25.0 °F 26% 30.05 in 10.0 mi West 11.5 mph - N/A   Mostly Cloudy
1:56 PM 61.0 °F - 25.0 °F 25% 30.02 in 10.0 mi West 12.7 mph - N/A   Scattered Clouds
2:56 PM 61.0 °F - 21.0 °F 21% 30.03 in 10.0 mi West 15.0 mph 25.3 mph N/A   Scattered Clouds
3:56 PM 59.0 °F - 19.0 °F 21% 30.03 in 10.0 mi West 13.8 mph 26.5 mph N/A   Scattered Clouds
4:56 PM 54.0 °F - 19.9 °F 26% 30.05 in 10.0 mi WNW 12.7 mph - N/A   Partly Cloudy
5:56 PM 46.9 °F - 21.0 °F 36% 30.08 in 10.0 mi WNW 6.9 mph - N/A   Clear
6:56 PM 44.1 °F 40.1 °F 21.9 °F 42% 30.11 in 10.0 mi NW 6.9 mph - N/A   Clear
7:56 PM 44.1 °F 39.0 °F 19.0 °F 37% 30.14 in 10.0 mi WNW 9.2 mph - N/A   Clear
8:56 PM 39.9 °F 34.5 °F 17.1 °F 40% 30.17 in 10.0 mi NW 8.1 mph - N/A   Clear
9:56 PM 41.0 °F 35.8 °F 15.1 °F 35% 30.19 in 10.0 mi NW 8.1 mph - N/A   Clear
10:56 PM 37.9 °F 32.7 °F 15.1 °F 39% 30.18 in 10.0 mi NW 6.9 mph - N/A   Clear
11:56 PM 33.1 °F 26.9 °F 16.0 °F 50% 30.19 in 10.0 mi NW 6.9 mph - N/A   Unknown